Location: Appletree Creek
(38.7363°N, 122.6833°W)
Time: 18:16:17
(UTC+00:00)

X-37B - Pass Details

Date: 18 September 2020
Orbit: 382 x 392 km, 45.0° (Epoch: 15 October)

Event Time Altitude Azimuth Distance (km) Brightness Sun altitude
Exits shadow 12:38:40 17° 319° (NW) 1,065 2.5 -15.6°
Maximum altitude 12:40:14 25° 2° (N) 828 2.4 -15.3°
Drops below altitude 10° 12:42:55 10° 61° (ENE) 1,405 4.7 -14.8°
Sets 12:45:14 0° 75° (ENE) 2,260 6.5 -14.4°
